Regional Weather Roundup
Issued by NWS

Home | Current Version | Previous Version | Text Only | Print | Product List | Glossary On
Versions: 1 2 3 4 5 6 7 8 9 10 11 12 13 14 15 16 17 18 19 20 21 22 23 24 25 26 27 28 29 30 31 32 33 34 35 36 37 38 39 40 41 42 43 44 45 46 47 48 49 50
000
ASUS43 KTOP 020008
RWRKS

WEATHER ROUNDUP FOR KANSAS
NATIONAL WEATHER SERVICE GOODLAND KS
700 PM CDT WED APR 01 2015

NOTE:  "FAIR" INDICATES FEW OR NO CLOUDS BELOW 12,000 FEET WITH NO
SIGNIFICANT WEATHER AND/OR OBSTRUCTIONS TO VISIBILITY.

KSZ001>006-013>018-027>032-041>047-020100-
NORTHWEST KANSAS

CITY           SKY/WX    TMP DP  RH WIND       PRES   REMARKS
GOODLAND       CLOUDY    77  25  14 N10G21    29.58F
6HR MIN TEMP:  77; 6HR MAX TEMP:  84;

HAYS           CLOUDY    84  45  24 S13       29.51F
HILL CITY      CLOUDY    81  33  17 N16G32    29.51R
6HR MIN TEMP:  80; 6HR MAX TEMP:  89;

RUSSELL        PTSUNNY   83  47  28 S16G25    29.50F
6HR MIN TEMP:  81; 6HR MAX TEMP:  87;

$$

KSZ061>065-074>080-084>089-020100-
SOUTHWEST KANSAS

CITY           SKY/WX    TMP DP  RH WIND       PRES   REMARKS
DODGE CITY     CLOUDY    85  25  11 SW15      29.55F
6HR MIN TEMP:  78; 6HR MAX TEMP:  88;

ELKHART          N/A     82  26  13 SW14        N/A
GARDEN CITY    SUNNY     82  32  16 S6        29.54F
6HR MIN TEMP:  77; 6HR MAX TEMP:  85;

GREAT BEND     PTSUNNY   82  48  30 S18G28    29.52F
LIBERAL        MOSUNNY   82  27  13 SW14      29.58F
PRATT          PTSUNNY   81  45  28 S15G25    29.58S
$$

KSZ066>073-081>083-090>101-020100-
SOUTHEAST KANSAS

CITY           SKY/WX    TMP DP  RH WIND       PRES   REMARKS
CHANUTE        CLEAR     75  61  61 SE14G22   29.70F
6HR MIN TEMP:  74; 6HR MAX TEMP:  78;

COFFEYVILLE    CLEAR     76  56  49 S16G26    29.71S
6HR MIN TEMP:  71; 6HR MAX TEMP:  80;

HUTCHINSON     CLEAR     81  52  36 S20G29    29.58S
6HR MIN TEMP:  78; 6HR MAX TEMP:  88;

MEDICINE LODGE   N/A     82  52  35 S18G26    29.57S
NEWTON         CLEAR     79  52  38 S25G32    29.64S
PARSONS        CLEAR     77  56  48 S13G22    29.72S
6HR MIN TEMP:  73; 6HR MAX TEMP:  80;

WICHITA INTL   PTCLDY    80  54  40 S22G33    29.61F
6HR MIN TEMP:  77; 6HR MAX TEMP:  87;

WICHITA JABRA  CLEAR     80  52  37 S24G33    29.62F
6HR MIN TEMP:  78; 6HR MAX TEMP:  85;

WICHITA MCCONL CLEAR     80  55  41 S21G32    29.63S
WINFIELD       CLEAR     79  54  41 S16G29    29.66F
6HR MIN TEMP:  79; 6HR MAX TEMP:  84;

$$

KSZ007>012-019>026-033>040-048>060-102>105-020100-
NORTHEAST KANSAS

CITY           SKY/WX    TMP DP  RH WIND       PRES   REMARKS
CONCORDIA      MOCLDY    81  54  39 S17G30    29.54F
6HR MIN TEMP:  78; 6HR MAX TEMP:  84;

EMPORIA        CLEAR     75  58  55 SE20G28   29.65F
6HR MIN TEMP:  75; 6HR MAX TEMP:  81;

LAWRENCE       CLEAR     68  56  65 SE18G29   29.71R
6HR MIN TEMP:  68; 6HR MAX TEMP:  82;

MANHATTAN      CLEAR     80  55  42 S22G31    29.59F
6HR MIN TEMP:  78; 6HR MAX TEMP:  85;

MARYSVILLE     CLEAR     77  52  41 S16G26    29.58S
OLATHE IND     CLEAR     67  55  65 SE20G28   29.74F
6HR MIN TEMP:  67; 6HR MAX TEMP:  79;

OLATHE EXE     CLEAR     66  57  72 S17G28    29.73F
6HR MIN TEMP:  66; 6HR MAX TEMP:  79;

SALINA         CLEAR     83  52  34 S20G33    29.55S
6HR MIN TEMP:  80; 6HR MAX TEMP:  87;

TOPEKA BILLARD CLEAR     74  55  51 SE22      29.67S
6HR MIN TEMP:  74; 6HR MAX TEMP:  81;

TOPEKA FORBES  CLEAR     75  55  49 SE21G29   29.67S
6HR MIN TEMP:  75; 6HR MAX TEMP:  84;

$$



USA.gov is the U.S. government's official web portal to all federal, state and local government web resources and services.